KUIPER-00172

Last updated on Mon Oct 20 2025 00:02:07 GMT+0000 (Coordinated Universal Time)

1 65785U 25217Z 25292.30714089 .00050742 00000+0 13762-2 0 9998 2 65785 51.8737 327.4357 0002609 111.3605 248.7660 15.37122528 3674
UTC large
Height (km)
Speed (km/s)
/
Latitude / Longitude
Inclination (degrees)
Orbital Period (minutes)
Azimuth
Elevation
Range (km)
Doppler Factor

Next 0 passes for location: London (51.5072 / 0.1276)

Sorry there are no passes over London.